Regional Weather Roundup
Issued by NWS

Home | Current Version | Previous Version | Graphics & Text | Print | Product List | Glossary On
Versions: 1 2 3 4 5 6 7 8 9 10 11 12 13 14 15 16 17 18 19 20 21 22 23 24 25 26 27 28 29 30 31 32 33 34 35 36 37 38 39 40 41 42 43 44 45 46 47 48 49 50
000
ASUS43 KIND 271959
RWRIN

WEATHER ROUNDUP FOR INDIANA
NATIONAL WEATHER SERVICE INDIANAPOLIS IN
400 PM EDT MON MAR 27 2017

NOTE: "FAIR" INDICATES FEW OR NO CLOUDS BELOW 12,000 FEET WITH NO
SIGNIFICANT WEATHER AND/OR OBSTRUCTIONS TO VISIBILITY.

* - STATION DOES NOT REPORT WEATHER SUCH AS PRECIPITATION OR FOG.

+ - STATION NOT QUALITY CONTROLLED BY THE NATIONAL WEATHER SERVICE.
    USE DATA WITH CAUTION...ESPECIALLY DEWPOINT AND RELATIVE
    HUMIDITY OBSERVATIONS.

INZ001>003-010>013-019-020-272100-
NORTHWEST INDIANA

CITY           SKY/WX    TMP DP  RH WIND       PRES   REMARKS
GARY /AIRPORT/ CLOUDY    45  43  93 CALM      29.93S FOG
MONTICELLO +   PTSUNNY   59  51  74 NE5       29.87F

$$

LMZ046-743>745-272100-
SOUTHERN LAKE MICHIGAN

STATION/POSITION TIME  TEMP    WIND        PRES    WAVE
                       AIR SEA DIR/SP/G            HT
                 (UTC) (F)     (DEG/KT/KT) (MB)    (FT)
BURNS HARBOR     1940   41      60/  5/  8 1013.9F
MICHIGAN CITY    1930   40      40/  9/  9   N/A

$$

INZ004-005-014>016-021>024-272100-
NORTH CENTRAL INDIANA

CITY           SKY/WX    TMP DP  RH WIND       PRES   REMARKS
ELKHART        CLOUDY    55  48  76 S6        29.90F
GOSHEN         CLOUDY    57  47  69 S6        29.90F
SOUTH BEND     LGT RAIN  55  49  80 W3        29.91F

$$

INZ006>009-017-018-025>027-272100-
NORTHEAST INDIANA

CITY           SKY/WX    TMP DP  RH WIND       PRES   REMARKS
ANGOLA *+      CLOUDY    55  46  71 SW5       29.90F
FORT WAYNE     CLOUDY    60  50  69 SW5       29.90F
KENDALLVILLE + CLOUDY    56  49  76 SW8       29.91F

$$

INZ028-029-035-036-043>045-051>053-272100-
WEST CENTRAL INDIANA

CITY           SKY/WX    TMP DP  RH WIND       PRES   REMARKS
CRAWFORDSVL +  RAIN      55  55 100 SE3       29.86F
LAFAYETTE      LGT RAIN  61  53  75 E6        29.86F
TERRE HAUTE    CLOUDY    58  53  84 CALM      29.84F

$$

INZ030>032-037>040-046>048-054>057-064-065-272100-
CENTRAL INDIANA

CITY           SKY/WX    TMP DP  RH WIND       PRES   REMARKS
ANDERSON       LGT RAIN  61  52  72 SE6       29.88F
COLUMBUS       CLOUDY    61  55  82 SE8       29.87F
INDIANAPOLIS   LGT RAIN  58  52  80 SE9       29.86F
-EAGLE CREEK   LGT RAIN  59  50  72 SE6       29.86F
KOKOMO +       PTSUNNY   62  53  72 E6        29.88F
SHELBYVILLE    LGT RAIN  61  52  72 E7        29.86F

$$

INZ033-034-041-042-049-050-058-059-272100-
EAST CENTRAL INDIANA

CITY           SKY/WX    TMP DP  RH WIND       PRES   REMARKS
MUNCIE         CLOUDY    63  49  60 S3        29.88F
RICHMOND +     CLOUDY    59  50  72 S7        29.91S

$$

INZ060-061-067>069-081>083-085>088-272100-
SOUTHWEST INDIANA

CITY           SKY/WX    TMP DP  RH WIND       PRES   REMARKS
EVANSVILLE     CLOUDY    69  55  60 SW9       29.82F
HUNTINGBURG *+ PTSUNNY   69  58  67 S7        29.82F

$$

INZ062-063-066-070>080-084-089>092-272100-
SOUTH CENTRAL AND SOUTHEAST INDIANA

CITY           SKY/WX    TMP DP  RH WIND       PRES   REMARKS
BLOOMINGTON    CLOUDY    61  52  72 SE7       29.85F
MADISON *+     CLOUDY    68  54  60 S8        29.88F
SEYMOUR +      CLOUDY    66  55  68 SE8       29.86F

$$





USA.gov is the U.S. government's official web portal to all federal, state and local government web resources and services.